Hourly Data Report for September 23, 2017

All times are specified in Local Standard Time (LST). Add 1 hour to adjust for Daylight Saving Time where and when it is observed.

KAMLOOPS A
BRITISH COLUMBIA

50°42'09.000" N
120°26'55.000" W
345.30 m
1163781
71887
YKA

Download Data

Hourly Data (September 2017)
Hourly Data Report for September 23, 2017
Temp Definition
°C
Dew Point Temp Definition
°C
Rel Hum Definition
%
Wind Dir Definition
10's deg

Wind Spd Definition
km/h
Visibility Definition
km
Stn Press Definition
kPa
Hmdx Definition


Wind Chill Definition


Weather Definition


TIME
00:00 Legend Double Dagger 11.3 1.8 52 9 3 64.4 97.46     LegendNANA
01:00 Legend Double Dagger 11.6 2.5 53 2 3 64.4 97.49     Cloudy
02:00 Legend Double Dagger 11.3 2.8 56 0 1 64.4 97.49     LegendNANA
03:00 Legend Double Dagger 11.4 4.4 62 14 4 64.4 97.48     LegendNANA
04:00 Legend Double Dagger 11.1 2.8 57 10 9 64.4 97.51     Cloudy
05:00 Legend Double Dagger 11.2 2.1 53 10 13 64.4 97.55     LegendNANA
06:00 Legend Double Dagger 10.8 2.3 56 7 8 64.4 97.59     LegendNANA
07:00 Legend Double Dagger 11.4 2.7 55 36 2 64.4 97.65     Cloudy
08:00 Legend Double Dagger 11.9 2.6 53 10 13 64.4 97.69     LegendNANA
09:00 Legend Double Dagger 13.4 2.7 48 14 4 64.4 97.73     LegendNANA
10:00 Legend Double Dagger 14.7 3.6 47 28 5 64.4 97.71     Cloudy
11:00 Legend Double Dagger 16.1 4.7 46 26 13 64.4 97.68     LegendNANA
12:00 Legend Double Dagger 17.0 5.1 45 28 17 64.4 97.65     LegendNANA
13:00 Legend Double Dagger 18.1 4.6 41 29 22 64.4 97.62     Mostly Cloudy
14:00 Legend Double Dagger 18.5 4.9 40 27 18 64.4 97.60     LegendNANA
15:00 Legend Double Dagger 18.7 5.8 42 27 13 64.4 97.58     LegendNANA
16:00 Legend Double Dagger 18.6 6.7 45 26 11 64.4 97.58     Mostly Cloudy
17:00 Legend Double Dagger 18.6 5.3 41 25 10 64.4 97.59     LegendNANA
18:00 Legend Double Dagger 18.1 5.2 42 21 8 64.4 97.58     LegendNANA
19:00 Legend Double Dagger 16.3 5.9 50 8 9 64.4 97.65     Mostly Cloudy
20:00 Legend Double Dagger 15.9 3.9 45 11 20 64.4 97.68     LegendNANA
21:00 Legend Double Dagger 15.3 4.0 47 10 18 64.4 97.73     LegendNANA
22:00 Legend Double Dagger 15.2 3.9 46 12 19 64.4 97.74     Mostly Cloudy
23:00 Legend Double Dagger 14.8 3.8 47 14 14 64.4 97.77     LegendNANA

Notes on Data Quality.

Legend

  • E = Estimated
  • M = Missing
  • NA = Not Available
  • ‡ = Partner data that is not subject to review by the National Climate Archives
Date modified: